Regional Weather Roundup
Issued by NWS

Home | Current Version | Previous Version | Graphics & Text | Print | Product List | Glossary On
Versions: 1 2 3 4 5 6 7 8 9 10 11 12 13 14 15 16 17 18 19 20 21 22 23 24 25 26 27
000
ASUS45 KTFX 220910
RWRMT
MONTANA REGIONAL WEATHER ROUNDUP
NATIONAL WEATHER SERVICE GREAT FALLS MT
300 AM MDT MON MAY 22 2017

NOTE: "FAIR" INDICATES FEW OR NO CLOUDS BELOW 12000 FEET WITH NO
SIGNIFICANT WEATHER AND/OR OBSTRUCTIONS TO VISIBILITY.

MTZ001>007-043-221000-
WEST OF THE DIVIDE

CITY           SKY/WX    TMP DP  RH WIND       PRES   REMARKS
KALISPELL      CLEAR     44  43  96 N3        30.18R
MISSOULA       PTCLDY    47  41  80 N3        30.24R
BUTTE          CLEAR     37  31  78 SE5       30.29S
MULLAN PASS    PTCLDY    47  33  58 NW6       30.30S
ANACONDA         N/A     43  30  61 S5        30.26S
DEER LODGE       N/A     39  34  81 CALM      30.28S
EUREKA           N/A     45  39  81 CALM      30.18R
HAMILTON         N/A     50  36  57 S6        30.24S
LIBBY            N/A     45  43  93 CALM      30.18S
RONAN            N/A     46  41  83 CALM      30.22R
$$

MTZ008-052>055-221000-
SOUTHWEST MONTANA

CITY           SKY/WX    TMP DP  RH WIND       PRES   REMARKS
BOZEMAN        PTCLDY    42  38  85 E5        30.23S
DILLON         CLEAR     44  34  67 S10       30.26F
W YELLOWSTONE  CLOUDY    28  27  93 CALM      30.33S
ENNIS          CLEAR     37  32  81 CALM      30.31F
THREE FORKS      N/A     43  41  93 CALM      30.19S
$$

MTZ009-010-012-014-046-048-049-054-221000-
EAST SLOPES AND CENTRAL MONTANA

CITY           SKY/WX    TMP DP  RH WIND       PRES   REMARKS
CUT BANK       MOCLDY    43  36  76 W7        30.19S
GREAT FALLS    CLOUDY    51  41  68 SW5       30.18R
HELENA         CLOUDY    51  38  60 W5        30.18F
AUGUSTA        MOCLDY    51  39  63 N14       30.19R
BOWMANS CRNR     N/A     48  36  61 SW8       30.17S
CHOTEAU          N/A     50  39  66 N9        30.20R
FAIRFIELD      MOCLDY    49  39  67 NW5       30.18R
POWER          CLOUDY    52  37  56 NE15      30.16S
RAYNESFORD     MOCLDY    48  40  73 CALM      30.19R
ULM            MOCLDY    47  43  85 E6        30.17R
$$

MTZ011-013-016-021-045-047-050-051-221000-
NORTH CENTRAL MONTANA

CITY           SKY/WX    TMP DP  RH WIND       PRES   REMARKS
HAVRE          CLOUDY    43  37  79 SW12      30.10S
LEWISTOWN      CLOUDY    47  39  74 SW12      30.14F
N BAR RANCH    CLOUDY    45  37  76 NW7       30.15F
CHINOOK          N/A     43  39  87 NW3       30.10R
DENTON         MOCLDY    51  38  59 W15       30.10S
FORT BENTON      N/A     55  37  50 MISG      30.13F
GEYSER         MOCLDY    52  38  59 W8        30.17S
JUDITH GAP       N/A     45  34  66 N8        30.16R
STANFORD       MOCLDY    53  36  52 NW13      30.17R
WINIFRED         N/A     50  40  69 W6        30.12R
$$

MTZ017>020-022>027-061-062-221000-
NORTHEAST MONTANA

CITY           SKY/WX    TMP DP  RH WIND       PRES   REMARKS
GLASGOW        CLEAR     45  42  89 N8        30.03F
JORDAN           N/A     47  44  90 W6        30.05S
SIDNEY         CLOUDY    48  42  80 NW14      29.98S
WOLF POINT     CLEAR     43  39  86 W6        30.01F
MALTA          CLOUDY    43  41  93 NW7       30.07R
PLENTYWOOD       N/A     45  37  76 NW7       29.99R
POPLAR           N/A     45  41  87 W8        30.00F
SCOBEY           N/A     39  32  76 MISG      29.99F
$$

MTZ028>42-056>058-221000-
SOUTHCENTRAL AND SOUTHEAST MONTANA

CITY           SKY/WX    TMP DP  RH WIND       PRES   REMARKS
BAKER          CLOUDY    45  44  97 W8        30.02F
BILLINGS       MOCLDY    54  39  57 W8        30.12S
LIVINGSTON     MOCLDY    44  38  79 NW10      30.20F
MILES CITY     MOCLDY    48  45  89 SW9       30.04F
BIG TIMBER     CLOUDY    52  36  54 W17       30.20S
EKALAKA          N/A     43  39  85 SW3       30.02F
FORSYTH          N/A     48  46  93 CALM      30.07R
LAUREL           N/A     52  38  58 N2        30.11F
ROUNDUP          N/A     51  37  58 SW6       30.01F
$$

REGIONAL REPORTS...DAKOTAS

CITY           SKY/WX    TMP DP  RH WIND       PRES   REMARKS
WILLISTON      CLOUDY    51  41  68 NW13      29.96R
MINOT          CLOUDY    47  39  74 CALM      29.92S
DICKINSON      CLOUDY    48  43  82 NW10      29.95S
BEACH          MOCLDY    46  46 100 W12G18    30.02F
TIOGA          CLOUDY    50  43  76 N15G21    29.94R
WATFORD CITY   CLOUDY    50  41  71 W12       29.95R
BISMARCK       CLEAR     38  34  85 E3        29.89F
GRAND FORKS    LGT RAIN  47  44  90 W10       29.84F
FARGO          PTCLDY    42  40  92 W8        29.87F
BUFFALO SD       N/A     48  45  89 NW20      29.98R
RAPID CITY     PTCLDY    42  36  79 W7        30.03F
$$

REGIONAL REPORTS...WYOMING/IDAHO/WASHINGTON

CITY           SKY/WX    TMP DP  RH WIND       PRES   REMARKS
GILLETTE       CLOUDY    47  38  71 W13       30.09F
SHERIDAN       CLOUDY    55  35  47 NW23      30.12R
BUFFALO WY     CLEAR     48  33  56 W12       30.13F
CODY           PTCLDY    49  37  63 NW3       30.22R
YELLOWSTONE LA   N/A     27  24  89 CALM      30.36S
IDAHO FALLS    CLEAR     45  35  68 CALM      30.27R
SALMON         CLEAR     41  37  87 CALM      30.26R
BOISE          MOCLDY    56  47  71 SE9       30.18S
SPOKANE        PTCLDY    58  45  62 SW6       30.18S
$$

REGIONAL REPORTS...ALBERTA

CITY           SKY/WX    TMP DP  RH WIND       PRES   REMARKS
EDMONTON       CLEAR     52  37  58 SE5       30.14R
CALGARY        MOCLDY    59  36  41 W5        30.17S
LETHBRIDGE     CLOUDY    52  39  62 SW10      30.14F
MEDICINE HAT   CLOUDY    59  37  44 NW10      30.10R
WATERTON GATE    N/A     41  34  75 SW7         N/A
CARDSTON         N/A     48  36  61 SW9         N/A
MILK RIVER       N/A     50  41  71 W9          N/A
$$

REGIONAL REPORTS...SASKATCHEWAN

CITY           SKY/WX    TMP DP  RH WIND       PRES   REMARKS
SWIFT CURRENT  PTCLDY    45  39  81 W8        30.06S
REGINA         MOCLDY    46  41  81 NW10      30.00S
SASKATOON      CLEAR     39  36  87 NW9       30.09S
VAL MARIE        N/A     37  34  87 E5          N/A
ROCKGLEN         N/A     45  39  81 NW7         N/A
ASSINIBOIA       N/A     48  41  76 S5          N/A
$$




USA.gov is the U.S. government's official web portal to all federal, state and local government web resources and services.